Time,TemperatureF,DewpointF,PressureIn,WindDirection,WindDirectionDegrees,WindSpeedMPH,WindSpeedGustMPH,Humidity,HourlyPrecipIn,Conditions,Clouds,dailyrainin,SoftwareType,DateUTC
2013-05-19 00:02:00,67.0,63.0,-100.00,SE,145,9.0,12.0,87,0.00,,,0.02,,2013-05-19 05:02:00,
2013-05-19 00:12:00,67.0,63.0,-100.00,SE,145,9.0,12.0,87,0.00,,,0.02,,2013-05-19 05:12:00,
2013-05-19 00:22:00,66.0,63.0,-100.00,SE,145,10.0,12.0,87,0.00,,,0.02,,2013-05-19 05:22:00,
2013-05-19 00:32:00,66.0,63.0,-100.00,SE,135,11.0,13.0,88,0.00,,,0.02,,2013-05-19 05:32:00,
2013-05-19 00:42:00,66.0,63.0,-100.00,SE,145,9.0,15.0,88,0.00,,,0.02,,2013-05-19 05:42:00,
2013-05-19 00:51:00,66.0,63.0,-100.00,SE,145,11.0,14.0,87,0.00,,,0.02,,2013-05-19 05:51:00,
2013-05-19 01:02:00,66.0,63.0,-100.00,SE,145,12.0,14.0,87,0.00,,,0.02,,2013-05-19 06:02:00,
2013-05-19 01:12:00,66.0,63.0,-100.00,SE,140,12.0,16.0,87,0.00,,,0.02,,2013-05-19 06:12:00,
2013-05-19 01:21:00,66.0,63.0,-100.00,SSE,150,11.0,13.0,86,0.00,,,0.02,,2013-05-19 06:21:00,
2013-05-19 01:32:00,66.0,63.0,-100.00,SE,140,11.0,16.0,87,0.00,,,0.02,,2013-05-19 06:32:00,
2013-05-19 01:42:00,66.0,63.0,-100.00,SE,135,10.0,14.0,86,0.00,,,0.02,,2013-05-19 06:42:00,
2013-05-19 01:51:00,66.0,63.0,-100.00,SE,130,9.0,12.0,86,0.00,,,0.02,,2013-05-19 06:51:00,
2013-05-19 02:01:00,66.0,63.0,-100.00,SE,140,9.0,12.0,87,0.00,,,0.01,,2013-05-19 07:01:00,
2013-05-19 02:11:00,66.0,63.0,-100.00,SE,140,10.0,12.0,87,0.00,,,0.01,,2013-05-19 07:11:00,
2013-05-19 02:21:00,66.0,63.0,-100.00,SE,135,9.0,13.0,87,0.00,,,0.01,,2013-05-19 07:21:00,
2013-05-19 02:32:00,66.0,63.0,-100.00,SE,130,11.0,14.0,87,0.00,,,0.01,,2013-05-19 07:32:00,
2013-05-19 02:42:00,66.0,63.0,-100.00,SE,140,10.0,14.0,86,0.00,,,0.01,,2013-05-19 07:42:00,
2013-05-19 02:52:00,66.0,63.0,-100.00,SE,145,10.0,13.0,87,0.00,,,0.01,,2013-05-19 07:52:00,
2013-05-19 03:01:00,66.0,63.0,-100.00,SE,145,11.0,13.0,87,0.00,,,0.01,,2013-05-19 08:01:00,
2013-05-19 03:12:00,66.0,63.0,-100.00,SE,145,11.0,14.0,87,0.00,,,0.01,,2013-05-19 08:12:00,
2013-05-19 03:22:00,66.0,63.0,-100.00,SE,140,11.0,14.0,87,0.00,,,0.01,,2013-05-19 08:22:00,
2013-05-19 03:32:00,66.0,63.0,-100.00,SE,140,11.0,16.0,87,0.00,,,0.01,,2013-05-19 08:32:00,
2013-05-19 03:42:00,66.0,63.0,-100.00,SSE,150,9.0,16.0,86,0.00,,,0.01,,2013-05-19 08:42:00,
2013-05-19 03:52:00,66.0,63.0,-100.00,SE,135,12.0,17.0,87,0.00,,,0.01,,2013-05-19 08:52:00,
2013-05-19 04:02:00,66.0,63.0,-100.00,SE,130,12.0,15.0,87,0.00,,,0.01,,2013-05-19 09:02:00,
2013-05-19 04:11:00,66.0,63.0,-100.00,SE,145,13.0,18.0,87,0.00,,,0.01,,2013-05-19 09:11:00,
2013-05-19 04:21:00,66.0,63.0,-100.00,SSE,150,14.0,19.0,87,0.00,,,0.01,,2013-05-19 09:21:00,
2013-05-19 04:32:00,65.0,63.0,-100.00,SE,140,12.0,17.0,88,0.00,,,0.01,,2013-05-19 09:32:00,
2013-05-19 04:42:00,65.0,63.0,-100.00,SE,135,12.0,16.0,88,0.00,,,0.01,,2013-05-19 09:42:00,
2013-05-19 04:53:00,65.0,63.0,-100.00,SE,140,11.0,16.0,89,0.00,,,0.01,,2013-05-19 09:53:00,
2013-05-19 05:02:00,65.0,63.0,-100.00,SE,145,11.0,14.0,89,0.00,,,0.01,,2013-05-19 10:02:00,
2013-05-19 05:12:00,65.0,63.0,-100.00,SSE,160,12.0,16.0,89,0.00,,,0.01,,2013-05-19 10:12:00,
2013-05-19 05:22:00,65.0,63.0,-100.00,SSE,155,12.0,17.0,89,0.00,,,0.01,,2013-05-19 10:22:00,
2013-05-19 05:32:00,66.0,63.0,-100.00,South,175,16.0,20.0,88,0.01,,,0.01,,2013-05-19 10:32:00,
2013-05-19 05:42:00,63.0,61.0,-100.00,West,265,10.0,29.0,90,0.01,,,0.01,,2013-05-19 10:42:00,
2013-05-19 05:52:00,62.0,61.0,-100.00,South,185,2.0,12.0,91,0.00,,,0.01,,2013-05-19 10:52:00,
2013-05-19 06:02:00,62.0,61.0,-100.00,South,185,6.0,9.0,92,0.00,,,0.01,,2013-05-19 11:02:00,
2013-05-19 06:11:00,62.0,61.0,-100.00,South,185,9.0,12.0,92,0.00,,,0.01,,2013-05-19 11:11:00,
2013-05-19 06:21:00,62.0,61.0,-100.00,SSE,160,6.0,10.0,92,0.01,,,0.01,,2013-05-19 11:21:00,
2013-05-19 06:32:00,62.0,61.0,-100.00,ESE,110,7.0,9.0,93,0.01,,,0.01,,2013-05-19 11:32:00,
2013-05-19 06:42:00,62.0,59.0,-100.00,East,100,8.0,10.0,93,0.00,,,0.01,,2013-05-19 11:42:00,
2013-05-19 06:52:00,62.0,59.0,-100.00,ESE,110,8.0,11.0,93,0.00,,,0.01,,2013-05-19 11:52:00,
2013-05-19 07:01:00,61.0,59.0,-100.00,East,100,10.0,12.0,93,0.00,,,0.01,,2013-05-19 12:01:00,
2013-05-19 07:11:00,61.0,59.0,-100.00,East,100,11.0,14.0,93,0.00,,,0.01,,2013-05-19 12:11:00,
2013-05-19 07:21:00,62.0,59.0,-100.00,East,95,12.0,15.0,93,0.00,,,0.01,,2013-05-19 12:21:00,
2013-05-19 07:31:00,62.0,61.0,-100.00,East,100,13.0,17.0,93,0.00,,,0.01,,2013-05-19 12:31:00,
2013-05-19 07:41:00,62.0,61.0,-100.00,East,100,14.0,17.0,93,0.00,,,0.01,,2013-05-19 12:41:00,
2013-05-19 07:52:00,63.0,61.0,-100.00,ESE,105,16.0,21.0,93,0.00,,,0.01,,2013-05-19 12:52:00,
2013-05-19 08:01:00,64.0,63.0,-100.00,SE,125,16.0,22.0,93,0.00,,,0.01,,2013-05-19 13:01:00,
2013-05-19 08:11:00,64.0,63.0,-100.00,ESE,110,19.0,27.0,93,0.00,,,0.01,,2013-05-19 13:11:00,
2013-05-19 08:21:00,64.0,63.0,-100.00,East,95,16.0,24.0,93,0.00,,,0.01,,2013-05-19 13:21:00,
2013-05-19 08:32:00,64.0,63.0,-100.00,East,100,17.0,27.0,93,0.00,,,0.01,,2013-05-19 13:32:00,
2013-05-19 08:42:00,64.0,63.0,-100.00,East,95,14.0,24.0,93,0.00,,,0.01,,2013-05-19 13:42:00,
2013-05-19 08:52:00,63.0,63.0,-100.00,East,100,16.0,21.0,93,0.00,,,0.01,,2013-05-19 13:52:00,
2013-05-19 09:02:00,64.0,63.0,-100.00,ESE,120,16.0,20.0,93,0.00,,,0.01,,2013-05-19 14:02:00,
2013-05-19 09:11:00,64.0,63.0,-100.00,ESE,120,14.0,20.0,93,0.00,,,0.01,,2013-05-19 14:11:00,
2013-05-19 09:21:00,64.0,63.0,-100.00,SE,145,19.0,23.0,93,0.00,,,0.01,,2013-05-19 14:21:00,
2013-05-19 09:32:00,64.0,63.0,-100.00,SE,145,15.0,21.0,93,0.00,,,0.01,,2013-05-19 14:32:00,
2013-05-19 09:41:00,65.0,63.0,-100.00,SSE,150,17.0,24.0,93,0.00,,,0.01,,2013-05-19 14:41:00,
2013-05-19 09:51:00,65.0,63.0,-100.00,SSE,155,19.0,27.0,93,0.00,,,0.01,,2013-05-19 14:51:00,
2013-05-19 10:01:00,65.0,63.0,-100.00,SSE,150,18.0,24.0,93,0.00,,,0.01,,2013-05-19 15:01:00,
2013-05-19 10:11:00,65.0,63.0,-100.00,SSE,155,21.0,25.0,92,0.00,,,0.01,,2013-05-19 15:11:00,
2013-05-19 10:21:00,65.0,63.0,-100.00,SSE,155,24.0,34.0,91,0.00,,,0.01,,2013-05-19 15:21:00,
2013-05-19 10:33:00,66.0,63.0,-100.00,SSE,155,22.0,32.0,89,0.00,,,0.01,,2013-05-19 15:33:00,
2013-05-19 10:43:00,66.0,63.0,-100.00,SSE,155,22.0,29.0,89,0.00,,,0.01,,2013-05-19 15:43:00,
2013-05-19 10:53:00,66.0,63.0,-100.00,South,175,22.0,31.0,88,0.00,,,0.01,,2013-05-19 15:53:00,
2013-05-19 11:03:00,67.0,63.0,-100.00,SSE,150,25.0,30.0,87,0.00,,,0.01,,2013-05-19 16:03:00,
2013-05-19 11:12:00,68.0,63.0,-100.00,SSE,165,21.0,30.0,85,0.00,,,0.01,,2013-05-19 16:12:00,
2013-05-19 11:23:00,68.0,63.0,-100.00,SSE,155,20.0,31.0,82,0.00,,,0.01,,2013-05-19 16:23:00,
2013-05-19 11:32:00,70.0,63.0,-100.00,SE,145,19.0,31.0,80,0.00,,,0.01,,2013-05-19 16:32:00,
2013-05-19 11:42:00,69.0,63.0,-100.00,SSE,160,21.0,27.0,80,0.00,,,0.01,,2013-05-19 16:42:00,
2013-05-19 11:52:00,69.0,63.0,-100.00,South,170,24.0,29.0,80,0.00,,,0.01,,2013-05-19 16:52:00,
2013-05-19 12:02:00,70.0,64.0,-100.00,South,175,18.0,25.0,80,0.00,,,0.01,,2013-05-19 17:02:00,
2013-05-19 12:12:00,70.0,63.0,-100.00,South,180,19.0,27.0,77,0.00,,,0.01,,2013-05-19 17:12:00,
2013-05-19 12:22:00,71.0,63.0,-100.00,South,175,21.0,26.0,75,0.00,,,0.01,,2013-05-19 17:22:00,
2013-05-19 12:32:00,71.0,63.0,-100.00,South,190,17.0,24.0,75,0.00,,,0.01,,2013-05-19 17:32:00,
2013-05-19 12:42:00,71.0,63.0,-100.00,South,175,22.0,30.0,75,0.00,,,0.01,,2013-05-19 17:42:00,
2013-05-19 12:52:00,71.0,63.0,-100.00,South,180,17.0,26.0,74,0.00,,,0.01,,2013-05-19 17:52:00,
2013-05-19 13:02:00,72.0,63.0,-100.00,South,190,23.0,31.0,71,0.00,,,0.01,,2013-05-19 18:02:00,
2013-05-19 13:12:00,72.0,63.0,-100.00,SSW,195,17.0,27.0,71,0.00,,,0.01,,2013-05-19 18:12:00,
2013-05-19 13:22:00,74.0,64.0,-100.00,SSW,205,16.0,26.0,69,0.00,,,0.01,,2013-05-19 18:22:00,
2013-05-19 13:32:00,74.0,63.0,-100.00,South,180,19.0,28.0,65,0.00,,,0.01,,2013-05-19 18:32:00,
2013-05-19 13:42:00,74.0,63.0,-100.00,South,185,21.0,26.0,64,0.00,,,0.01,,2013-05-19 18:42:00,
2013-05-19 13:52:00,75.0,61.0,-100.00,South,185,23.0,29.0,61,0.00,,,0.01,,2013-05-19 18:52:00,
2013-05-19 14:01:00,76.0,63.0,-100.00,South,180,16.0,23.0,61,0.00,,,0.01,,2013-05-19 19:01:00,
2013-05-19 14:11:00,76.0,61.0,-100.00,SSW,195,19.0,27.0,59,0.00,,,0.01,,2013-05-19 19:11:00,
2013-05-19 14:21:00,76.0,63.0,-100.00,South,190,14.0,24.0,60,0.00,,,0.01,,2013-05-19 19:21:00,
2013-05-19 14:32:00,76.0,63.0,-100.00,South,185,15.0,19.0,61,0.00,,,0.01,,2013-05-19 19:32:00,
2013-05-19 14:42:00,76.0,61.0,-100.00,South,180,17.0,24.0,60,0.00,,,0.01,,2013-05-19 19:42:00,
2013-05-19 14:52:00,78.0,63.0,-100.00,South,185,12.0,21.0,60,0.00,,,0.01,,2013-05-19 19:52:00,
2013-05-19 15:02:00,78.0,63.0,-100.00,SSW,210,14.0,20.0,58,0.00,,,0.01,,2013-05-19 20:02:00,
2013-05-19 15:11:00,78.0,63.0,-100.00,South,185,14.0,22.0,58,0.00,,,0.01,,2013-05-19 20:11:00,
2013-05-19 15:21:00,78.0,63.0,-100.00,South,190,13.0,22.0,57,0.00,,,0.01,,2013-05-19 20:21:00,
2013-05-19 15:32:00,77.0,61.0,-100.00,South,190,14.0,24.0,56,0.00,,,0.01,,2013-05-19 20:32:00,
2013-05-19 15:41:00,77.0,61.0,-100.00,South,190,19.0,26.0,56,0.00,,,0.01,,2013-05-19 20:41:00,
2013-05-19 15:52:00,76.0,59.0,-100.00,South,190,17.0,24.0,56,0.00,,,0.01,,2013-05-19 20:52:00,
2013-05-19 16:02:00,76.0,61.0,-100.00,SSW,200,12.0,24.0,58,0.00,,,0.01,,2013-05-19 21:02:00,
2013-05-19 16:11:00,75.0,61.0,-100.00,SSW,195,15.0,20.0,58,0.00,,,0.01,,2013-05-19 21:11:00,
2013-05-19 16:22:00,75.0,61.0,-100.00,SSW,200,14.0,21.0,60,0.00,,,0.01,,2013-05-19 21:22:00,
2013-05-19 16:32:00,75.0,61.0,-100.00,SSW,210,14.0,18.0,61,0.00,,,0.01,,2013-05-19 21:32:00,
2013-05-19 16:43:00,75.0,61.0,-100.00,SSW,210,15.0,20.0,62,0.00,,,0.01,,2013-05-19 21:43:00,
2013-05-19 16:53:00,75.0,61.0,-100.00,SSW,210,14.0,20.0,62,0.00,,,0.01,,2013-05-19 21:53:00,
2013-05-19 17:03:00,75.0,63.0,-100.00,SSW,205,12.0,17.0,64,0.00,,,0.01,,2013-05-19 22:03:00,
2013-05-19 17:12:00,75.0,63.0,-100.00,SSW,205,13.0,19.0,65,0.00,,,0.01,,2013-05-19 22:12:00,
2013-05-19 17:23:00,74.0,63.0,-100.00,SW,215,13.0,19.0,67,0.00,,,0.01,,2013-05-19 22:23:00,
2013-05-19 17:33:00,73.0,61.0,-100.00,SSW,200,15.0,22.0,65,0.00,,,0.01,,2013-05-19 22:33:00,
2013-05-19 17:42:00,73.0,61.0,-100.00,SSW,210,12.0,17.0,65,0.00,,,0.01,,2013-05-19 22:42:00,
2013-05-19 17:52:00,72.0,59.0,-100.00,SSW,210,11.0,15.0,64,0.00,,,0.01,,2013-05-19 22:52:00,
2013-05-19 18:02:00,72.0,59.0,-100.00,SW,215,8.0,16.0,65,0.00,,,0.01,,2013-05-19 23:02:00,
2013-05-19 18:11:00,71.0,59.0,-100.00,SSW,205,9.0,12.0,66,0.00,,,0.01,,2013-05-19 23:11:00,
2013-05-19 18:21:00,71.0,59.0,-100.00,SW,220,8.0,13.0,67,0.00,,,0.01,,2013-05-19 23:21:00,
2013-05-19 18:32:00,70.0,61.0,-100.00,SSW,210,7.0,10.0,69,0.00,,,0.01,,2013-05-19 23:32:00,
2013-05-19 18:42:00,70.0,61.0,-100.00,SSW,210,8.0,11.0,72,0.00,,,0.01,,2013-05-19 23:42:00,
2013-05-19 18:52:00,69.0,61.0,-100.00,SSW,205,7.0,11.0,73,0.00,,,0.01,,2013-05-19 23:52:00,
2013-05-19 19:02:00,69.0,61.0,-100.00,SW,215,7.0,11.0,74,0.00,,,0.01,,2013-05-20 00:02:00,
2013-05-19 19:11:00,69.0,61.0,-100.00,SW,215,7.0,11.0,74,0.00,,,0.01,,2013-05-20 00:11:00,
2013-05-19 19:21:00,69.0,61.0,-100.00,SW,235,9.0,12.0,76,0.00,,,0.01,,2013-05-20 00:21:00,
2013-05-19 19:32:00,68.0,63.0,-100.00,WSW,245,11.0,13.0,80,0.00,,,0.01,,2013-05-20 00:32:00,
2013-05-19 19:41:00,68.0,63.0,-100.00,SW,235,6.0,13.0,83,0.00,,,0.01,,2013-05-20 00:41:00,
2013-05-19 19:52:00,67.0,63.0,-100.00,WSW,245,9.0,12.0,83,0.00,,,0.01,,2013-05-20 00:52:00,
2013-05-19 20:01:00,67.0,61.0,-100.00,WSW,245,4.0,12.0,83,0.00,,,0.01,,2013-05-20 01:01:00,
2013-05-19 20:11:00,66.0,61.0,-100.00,WSW,245,4.0,7.0,82,0.00,,,0.01,,2013-05-20 01:11:00,
2013-05-19 20:21:00,66.0,61.0,-100.00,North,0,0.0,6.0,82,0.00,,,0.01,,2013-05-20 01:21:00,
2013-05-19 20:31:00,66.0,61.0,-100.00,ENE,65,2.0,4.0,83,0.00,,,0.01,,2013-05-20 01:31:00,
2013-05-19 20:42:00,66.0,61.0,-100.00,NNE,20,3.0,4.0,84,0.00,,,0.01,,2013-05-20 01:42:00,
2013-05-19 20:52:00,66.0,61.0,-100.00,NE,35,3.0,4.0,84,0.00,,,0.01,,2013-05-20 01:52:00,
2013-05-19 21:02:00,65.0,61.0,-100.00,NE,50,3.0,5.0,85,0.00,,,0.01,,2013-05-20 02:02:00,
2013-05-19 21:11:00,65.0,61.0,-100.00,NE,40,2.0,4.0,85,0.00,,,0.01,,2013-05-20 02:11:00,
2013-05-19 21:21:00,65.0,61.0,-100.00,NE,50,2.0,4.0,86,0.00,,,0.01,,2013-05-20 02:21:00,
2013-05-19 21:31:00,65.0,61.0,-100.00,ENE,65,3.0,5.0,86,0.00,,,0.01,,2013-05-20 02:31:00,
2013-05-19 21:42:00,65.0,61.0,-100.00,ENE,75,4.0,5.0,84,0.00,,,0.01,,2013-05-20 02:42:00,
2013-05-19 21:51:00,65.0,61.0,-100.00,ENE,60,4.0,6.0,84,0.00,,,0.01,,2013-05-20 02:51:00,
2013-05-19 22:01:00,66.0,63.0,-100.00,East,85,7.0,10.0,87,0.00,,,0.01,,2013-05-20 03:01:00,
2013-05-19 22:11:00,65.0,63.0,-100.00,East,85,6.0,10.0,90,0.00,,,0.01,,2013-05-20 03:11:00,
2013-05-19 22:21:00,65.0,63.0,-100.00,ENE,65,5.0,9.0,90,0.00,,,0.01,,2013-05-20 03:21:00,
2013-05-19 22:33:00,64.0,63.0,-100.00,NE,50,7.0,12.0,91,0.00,,,0.01,,2013-05-20 03:33:00,
2013-05-19 22:42:00,64.0,61.0,-100.00,NE,45,6.0,10.0,91,0.00,,,0.01,,2013-05-20 03:42:00,
2013-05-19 22:52:00,64.0,61.0,-100.00,NNE,15,3.0,9.0,91,0.00,,,0.01,,2013-05-20 03:52:00,
2013-05-19 23:02:00,63.0,61.0,-100.00,ENE,70,6.0,8.0,91,0.00,,,0.01,,2013-05-20 04:02:00,
2013-05-19 23:12:00,63.0,61.0,-100.00,ENE,60,5.0,8.0,91,0.00,,,0.01,,2013-05-20 04:12:00,
2013-05-19 23:23:00,63.0,61.0,-100.00,ENE,65,7.0,11.0,91,0.00,,,0.01,,2013-05-20 04:23:00,
2013-05-19 23:33:00,62.0,61.0,-100.00,ENE,60,9.0,11.0,92,0.00,,,0.01,,2013-05-20 04:33:00,
2013-05-19 23:42:00,62.0,59.0,-100.00,ENE,60,9.0,14.0,92,0.00,,,0.01,,2013-05-20 04:42:00,
2013-05-19 23:52:00,61.0,59.0,-100.00,ENE,70,6.0,12.0,92,0.00,,,0.01,,2013-05-20 04:52:00,